Lewis Run, PA

3:46 AM EST on February 21, 2017 (GMT -0500)
Bradford Regional

Weather History for KBFD - February, 2014

Change the Weather History Date:

Saturday, February 15, 2014

  Actual Average Record
Temperature  
Mean Temperature 15 °F 24 °F  
Max Temperature 23 °F 32 °F 51 °F (2005)
Min Temperature 7 °F 15 °F -14 °F (1987)
Degree Days  
Heating Degree Days 50 36  
Month to date heating degree days 704 553  
Since 1 July heating degree days 5082 4964  
Cooling Degree Days 0 0  
Month to date cooling degree days 0 0  
Year to date cooling degree days 0 0  
Moisture  
Dew Point 12 °F    
Average Humidity 73    
Maximum Humidity 84    
Minimum Humidity 61    
Precipitation  
Precipitation 0.02 in 0.08 in 1.55 in (1990)
Month to date precipitation 0.63 1.26  
Year to date precipitation 2.57 4.55  
Sea Level Pressure  
Sea Level Pressure 29.76 in    
Wind  
Wind Speed 9 mph (NW)    
Max Wind Speed 18 mph    
Max Gust Speed 26 mph    
Visibility 4 miles    
Events Snow    
T = Trace of Precipitation, MM = Missing Value Source: NWS Daily Summary

Daily Weather History Graph

Daily Weather History Graph

Search for Another Location

Airport or City:

Trip Planner

Search our weather history database for the weather conditions in past years. The results will help you decide how hot, cold, wet, or windy it might be!

Date:

Astronomy

Feb. 15, 2014 Rise Set
Actual Time 7:10 AM EST 5:47 PM EST
Civil Twilight 6:41 AM EST 6:16 PM EST
Nautical Twilight 6:09 AM EST 6:48 PM EST
Astronomical Twilight 5:36 AM EST 7:21 PM EST
Moon 6:47 PM EST (2/15) 7:06 AM EST (2/15)
Length of Visible Light 11h 34m
Length of Day
10h 37m
Full, 100% of the Moon is Illuminated
Feb 15
Full
Feb 22
Last Quarter
Mar 1
New
Mar 8
First Quarter
Mar 16
Full

Hourly Weather History & Observations

Time (EST) Temp. Windchill Dew Point Humidity Pressure Visibility Wind Dir Wind Speed Gust Speed Precip Events Conditions
12:51 AM 21.2 °F - 15.8 °F 80% 29.65 in 7.0 mi Calm Calm - N/A   Overcast
12:53 AM 21.0 °F - 16.0 °F 81% 29.73 in 7.0 mi Calm Calm - N/A   Overcast
1:26 AM 19.9 °F - 16.0 °F 85% 29.65 in 2.5 mi Calm Calm - 0.00 in Snow Light Snow
1:41 AM 19.9 °F - 16.0 °F 85% 29.65 in 1.8 mi Calm Calm - 0.00 in Snow Light Snow
1:53 AM 19.9 °F - 16.0 °F 85% 29.73 in 1.8 mi Calm Calm - 0.00 in Snow Light Snow
2:01 AM 19.9 °F - 16.0 °F 85% 29.65 in 2.0 mi Calm Calm - 0.00 in Snow Light Snow
2:09 AM 19.9 °F - 16.0 °F 85% 29.65 in 1.8 mi Calm Calm - 0.00 in Snow Light Snow
2:27 AM 19.9 °F - 16.0 °F 85% 29.64 in 1.8 mi Calm Calm - 0.00 in Snow Light Snow
2:44 AM 19.9 °F - 16.0 °F 85% 29.64 in 2.0 mi Calm Calm - 0.00 in Snow Light Snow
2:53 AM 19.9 °F - 16.0 °F 85% 29.71 in 2.0 mi Calm Calm - 0.00 in Snow Light Snow
3:23 AM 19.9 °F - 16.0 °F 85% 29.62 in 1.8 mi Calm Calm - 0.01 in Snow Light Snow
3:49 AM 21.2 °F - 17.6 °F 86% 29.62 in 1.8 mi Calm Calm - 0.01 in Snow Light Snow
3:53 AM 21.0 °F - 17.1 °F 85% 29.69 in 1.8 mi Calm Calm - 0.01 in Snow Light Snow
4:08 AM 19.9 °F 13.4 °F 16.0 °F 85% 29.62 in 1.8 mi North 4.6 mph - 0.00 in Snow Light Snow
4:19 AM 19.9 °F 13.4 °F 16.0 °F 85% 29.62 in 2.0 mi North 4.6 mph - 0.00 in Snow Light Snow
4:32 AM 19.9 °F 14.9 °F 16.0 °F 85% 29.62 in 1.8 mi North 3.5 mph - 0.00 in Snow Light Snow
4:53 AM 19.9 °F 12.1 °F 16.0 °F 85% 29.70 in 2.0 mi NNW 5.8 mph - 0.01 in Snow Light Snow
5:53 AM 19.9 °F 13.4 °F 16.0 °F 85% 29.72 in 2.5 mi NNW 4.6 mph - 0.00 in Snow Light Snow
6:24 AM 19.9 °F 12.1 °F 16.0 °F 85% 29.64 in 1.8 mi NNW 5.8 mph - 0.00 in Snow Light Snow
6:33 AM 19.9 °F 11.1 °F 15.1 °F 81% 29.64 in 2.0 mi NNW 6.9 mph - 0.00 in Snow Light Snow
6:53 AM 19.9 °F 12.1 °F 15.1 °F 81% 29.73 in 2.0 mi NNW 5.8 mph - 0.00 in Snow Light Snow
7:30 AM 19.9 °F 11.1 °F 15.1 °F 81% 29.68 in 1.5 mi NNW 6.9 mph - 0.00 in Snow Light Snow
7:38 AM 19.9 °F 12.1 °F 15.1 °F 81% 29.68 in 1.2 mi NNW 5.8 mph - 0.00 in Snow Light Snow
7:53 AM 19.9 °F 12.1 °F 15.1 °F 81% 29.77 in 1.2 mi NNW 5.8 mph - 0.00 in Snow Light Snow
8:30 AM 19.9 °F 10.1 °F 15.1 °F 81% 29.71 in 1.0 mi NNW 8.1 mph - 0.00 in Snow Light Snow
8:53 AM 19.9 °F 10.1 °F 15.1 °F 81% 29.79 in 1.0 mi NNW 8.1 mph - 0.00 in Snow Light Snow
9:07 AM 19.9 °F 12.1 °F 15.1 °F 81% 29.72 in 1.0 mi NNW 5.8 mph - 0.00 in Snow Light Snow
9:29 AM 19.9 °F 9.3 °F 15.1 °F 81% 29.73 in 1.0 mi NNW 9.2 mph - 0.00 in Snow Light Snow
9:53 AM 21.0 °F 10.6 °F 15.1 °F 78% 29.81 in 0.8 mi NNW 9.2 mph - 0.00 in Snow Light Snow
10:02 AM 21.0 °F 10.6 °F 15.1 °F 78% 29.73 in 1.0 mi NNW 9.2 mph - 0.00 in Snow Light Snow
10:12 AM 21.0 °F 11.4 °F 14.0 °F 74% 29.73 in 3.0 mi NW 8.1 mph - 0.00 in Snow Light Snow
10:53 AM 21.9 °F 8.2 °F 14.0 °F 72% 29.83 in 6.0 mi NNW 16.1 mph - 0.00 in   Haze
11:53 AM 21.9 °F 9.8 °F 12.9 °F 68% 29.83 in 3.0 mi WNW 12.7 mph - 0.00 in Snow Light Snow
12:00 PM 21.9 °F 8.7 °F 12.9 °F 68% 29.75 in 2.0 mi NW 15.0 mph - 0.00 in Snow Light Snow
12:09 PM 21.9 °F 11.0 °F 14.0 °F 72% 29.75 in 1.2 mi NNW 10.4 mph - 0.00 in Snow Light Snow
12:46 PM 21.9 °F 9.2 °F 12.9 °F 68% 29.73 in 3.0 mi NNW 13.8 mph - 0.00 in Snow Light Snow
12:53 PM 21.9 °F 9.8 °F 12.9 °F 68% 29.81 in 1.8 mi NNW 12.7 mph - 0.00 in Snow Light Snow
1:01 PM 21.9 °F 9.8 °F 12.9 °F 68% 29.73 in 1.5 mi NNW 12.7 mph - 0.00 in Snow Light Snow
1:12 PM 21.9 °F 9.8 °F 12.0 °F 66% 29.73 in 2.0 mi NNW 12.7 mph - 0.00 in Snow Light Snow
1:28 PM 21.9 °F 9.2 °F 12.0 °F 66% 29.73 in 4.0 mi NW 13.8 mph - 0.00 in Snow Light Snow
1:53 PM 21.9 °F 7.8 °F 10.9 °F 63% 29.82 in 5.0 mi NW 17.3 mph - 0.00 in Snow Light Snow
2:06 PM 21.9 °F 9.8 °F 10.0 °F 60% 29.74 in 9.0 mi NW 12.7 mph - 0.00 in   Overcast
2:53 PM 21.9 °F 9.2 °F 10.9 °F 63% 29.83 in 9.0 mi WNW 13.8 mph - 0.00 in   Overcast
3:32 PM 21.0 °F 7.1 °F 10.0 °F 63% 29.77 in 4.0 mi NW 16.1 mph - 0.00 in Snow Light Snow
3:53 PM 19.9 °F 5.7 °F 10.0 °F 65% 29.86 in 6.0 mi NNW 16.1 mph - 0.00 in Snow Light Snow
4:53 PM 19.0 °F 4.0 °F 7.0 °F 59% 29.88 in 10.0 mi WNW 17.3 mph 23.0 mph 0.00 in   Overcast
5:53 PM 15.1 °F 1.8 °F 5.0 °F 64% 29.91 in 10.0 mi West 11.5 mph - N/A   Overcast
6:53 PM 12.9 °F -0.2 °F 3.9 °F 67% 29.94 in 10.0 mi WNW 10.4 mph - N/A   Mostly Cloudy
7:00 PM 12.0 °F -0.4 °F 3.9 °F 70% 29.84 in 10.0 mi WNW 9.2 mph - N/A   Scattered Clouds
7:46 PM 10.9 °F -2.6 °F 3.9 °F 73% 29.86 in 8.0 mi WNW 10.4 mph - N/A   Mostly Cloudy
7:53 PM 10.9 °F 1.4 °F 3.9 °F 73% 29.96 in 8.0 mi WNW 5.8 mph - N/A   Mostly Cloudy
8:53 PM 10.0 °F -3.7 °F 3.0 °F 73% 29.99 in 5.0 mi WNW 10.4 mph - 0.00 in Snow Light Snow
9:53 PM 9.0 °F -6.6 °F 1.9 °F 73% 30.00 in 3.0 mi WNW 12.7 mph 21.9 mph 0.00 in Snow Light Snow
10:11 PM 9.0 °F -4.2 °F 1.9 °F 73% 29.90 in 2.5 mi WNW 9.2 mph - 0.00 in Snow Light Snow
10:53 PM 8.1 °F -3.2 °F 1.9 °F 76% 30.00 in 2.0 mi West 6.9 mph - 0.00 in Snow Light Snow
11:09 PM 7.0 °F -9.1 °F 1.0 °F 77% 29.89 in 4.0 mi WNW 12.7 mph - 0.00 in Snow Light Snow
11:28 PM 7.0 °F -3.3 °F 1.0 °F 77% 29.89 in 2.5 mi WNW 5.8 mph - 0.00 in Snow Light Snow
11:37 PM 7.0 °F -7.5 °F 1.0 °F 77% 29.88 in 4.0 mi West 10.4 mph - 0.00 in Snow Light Snow
11:53 PM 7.0 °F -9.1 °F 1.0 °F 77% 29.98 in 6.0 mi NW 12.7 mph - 0.00 in   Haze